Location: Prescott
(34.5400°N, 112.4680°W)
Time: 06:08:44

N. Korean satellite - Visible Passes

Search period start: 21 March 2018 00:00
Search period end: 31 March 2018 00:00
Orbit: 460 x 512 km, 97.2° (Epoch: 21 March)

Date Brightness Start Highest point End Pass type
(mag) Time Alt. Az. Time Alt. Az. Time Alt. Az.
21 Mar 10.3 06:05:15 10° ENE 06:06:50 12° E 06:08:25 10° ESE visible
22 Mar 9.9 19:20:02 10° SW 19:22:25 16° W 19:24:49 10° NW visible
26 Mar 9.8 19:18:03 10° SW 19:20:32 17° W 19:23:05 10° NW visible
30 Mar 9.8 19:16:00 10° SW 19:18:38 18° W 19:21:17 10° NW visible
